Tracking 19576 objects as of 17-Feb-2019
HD Live streaming from Space Station
objects crossing your sky now

UNITE

Track UNITE now!
10-day predictions


NORAD ID: 44031
Int'l Code: 1998-067PX
Perigee: 409.8 km
Apogee: 414.5 km
Inclination: 51.6 °
Period: 92.7 minutes
Semi major axis: 6783 km
RCS: Unknown
Launch date: November 20, 1998
Source: United States (US)
Launch site: TYURATAM MISSILE AND SPACE COMPLEX (TTMTR)
aabbcc
Your satellite tracking list
Your tracking list is empty




NASA's NSSDC Master Catalog

Two Line Element Set (TLE):
1 44031U 98067PX  19047.91091279 +.00005307 +00000-0 +87704-4 0  9996
2 44031 051.6378 239.2370 0003525 058.7698 301.3637 15.54015787002590
Source of the keplerian elements: AFSPC